Вернуться в каталог

STARLINK-31611

АктивенСвязьVLEO
NORAD 59325·PAYLOAD·🇺🇸 United States

Запущен Mar 25, 2024 с Cape Canaveral Space Force Station

Loading…

Ближайшие Пролёты (ближайшие 24 часа)

TLE

СвежийSource: CelesTrak SupGP

Эпоха: Sep 15, 2026, 01:56 UTC

1 59325C 24057F   26258.08104167 -.00062325  00000+0 -22578-2 0  2585
2 59325  43.0001 197.9052 0001279 271.6915 291.2370 15.27603459    14

Отслеживайте STARLINK-31611 в реальном времени с AllMySat

Download on the App Store